Volver al catálogo

STARLINK-34013

ActivoComunicacionesVLEO
NORAD 63871·PAYLOAD·🇺🇸 United States

Lanzado May 10, 2025 desde Vandenberg Space Force Base

Loading…

Próximos Pases (próximas 24 horas)

TLE

ActualizadoSource: CelesTrak SupGP

Época: Sep 14, 2026, 20:49 UTC

1 63871C 25094H   26257.86784722 -.00004373  00000+0 -15215-3 0  2573
2 63871  69.9991 115.7396 0003443 267.1767 100.8210 15.29577562    14

Sigue STARLINK-34013 en tiempo real con AllMySat

Download on the App Store